FW5736 Weather Reports


time (UTC)temp
C
wind
direction
speed
KPH
gust
KPH
rain 1hr
cm
rain 24hr
cm
rain mn
cm
humidity
%
barometer
mb
20260831054129 23 64 0.0 0.0 0.00 0.00 0.00 55 1027.3
20260831053629 23 64 0.0 0.0 0.00 0.00 0.00 55 1027.4
20260831053130 23 64 0.0 4.8 0.00 0.00 0.00 55 1027.4
20260831052629 23 71 0.0 3.2 0.00 0.00 0.00 55 1027.4
20260831051629 23 72 0.0 3.2 0.00 0.00 0.00 53 1027.4
20260831051129 23 64 0.0 0.0 0.00 0.00 0.00 53 1027.4
20260831050629 23 65 0.0 0.0 0.00 0.00 0.00 53 1027.4
20260831045629 23 63 0.0 1.6 0.00 0.00 0.00 53 1027.5
20260831045129 23 57 0.0 3.2 0.00 0.00 0.00 52 1027.5
20260831044630 23 46 0.0 3.2 0.00 0.00 0.00 52 1027.5
20260831044129 23 68 0.0 1.6 0.00 0.00 0.00 52 1027.5
20260831043630 23 88 0.0 3.2 0.00 0.00 0.00 54 1027.6
20260831043129 23 90 0.0 8.0 0.00 0.00 0.00 53 1027.6
20260831042629 23 60 1.6 11.3 0.00 0.00 0.00 53 1027.6
20260831042130 23 51 1.6 12.9 0.00 0.00 0.00 54 1027.6
20260831041630 23 70 0.0 4.8 0.00 0.00 0.00 55 1027.7
20260831041129 23 63 0.0 12.9 0.00 0.00 0.00 58 1027.6
20260831040630 23 44 1.6 11.3 0.00 0.00 0.00 55 1027.6
20260831040129 23 32 0.0 11.3 0.00 0.00 0.00 55 1027.7
20260831035629 23 57 3.2 12.9 0.00 0.00 0.00 55 1027.7
20260831035130 23 45 1.6 4.8 0.00 0.00 0.00 55 1027.8
20260831034629 23 60 0.0 4.8 0.00 0.00 0.00 54 1027.8
20260831034129 24 24 1.6 4.8 0.00 0.00 0.00 54 1027.9
20260831033630 24 56 1.6 8.0 0.00 0.00 0.00 54 1027.8
20260831033129 24 22 1.6 8.0 0.00 0.00 0.00 55 1027.9
20260831032630 23 54 1.6 11.3 0.00 0.00 0.00 56 1027.9
20260831032129 23 66 3.2 11.3 0.00 0.00 0.00 55 1027.9
20260831031629 23 52 0.0 4.8 0.00 0.00 0.00 53 1028.0
20260831031130 23 59 1.6 8.0 0.00 0.00 0.00 54 1028.1
20260831030629 23 57 0.0 4.8 0.00 0.00 0.00 55 1028.1
20260831030129 23 55 1.6 4.8 0.00 0.00 0.00 55 1028.2
20260831025630 23 58 0.0 4.8 0.00 0.00 0.00 56 1028.2
20260831025129 23 66 0.0 4.8 0.00 0.00 0.00 57 1028.2
20260831024629 22 75 0.0 4.8 0.00 0.00 0.00 55 1028.3
20260831022629 22 13 0.0 8.0 0.00 0.00 0.00 54 1028.6
20260831022130 22 43 0.0 8.0 0.00 0.00 0.00 54 1028.7
20260831021629 22 27 1.6 9.7 0.00 0.00 0.00 55 1028.8
20260831020629 22 74 1.6 4.8 0.00 0.00 0.00 58 1029.0
20260831020129 21 21 0.0 3.2 0.00 0.00 0.00 58 1029.1
20260831015630 21 13 0.0 0.0 0.00 0.00 0.00 58 1029.1
20260831015129 21 6 0.0 3.2 0.00 0.00 0.00 58 1029.3
20260831014629 21 8 0.0 8.0 0.00 0.00 0.00 60 1029.4
20260831014129 21 33 0.0 4.8 0.00 0.00 0.00 58 1029.4
20260831012629 21 7 0.0 4.8 0.00 0.00 0.00 60 1029.7
20260831012130 20 7 0.0 3.2 0.00 0.00 0.00 61 1029.7
20260831011629 20 359 0.0 4.8 0.00 0.00 0.00 62 1029.8
20260831010629 20 359 1.6 4.8 0.00 0.00 0.00 65 1030.0
20260831010129 20 359 1.6 4.8 0.00 0.00 0.00 65 1030.1
20260831005129 19 359 0.0 4.8 0.00 0.00 0.00 67 1030.1
20260831004629 19 359 0.0 0.0 0.00 0.00 0.00 67 1030.1
20260831004129 18 359 0.0 3.2 0.00 0.00 0.00 68 1030.2
20260831003629 18 359 1.6 4.8 0.00 0.00 0.00 68 1030.2
20260831003129 18 359 1.6 4.8 0.00 0.00 0.00 70 1030.2
20260831002629 18 5 1.6 4.8 0.00 0.00 0.00 71 1030.2
20260831002130 18 359 0.0 8.0 0.00 0.00 0.00 71 1030.3
20260831001629 17 359 0.0 0.0 0.00 0.00 0.00 72 1030.2
20260831001129 17 359 0.0 3.2 0.00 0.00 0.00 72 1030.2
20260831000629 17 359 0.0 8.0 0.00 0.00 0.00 74 1030.2
20260831000130 17 359 0.0 4.8 0.00 0.00 0.00 76 1030.2
20260830235630 17 359 0.0 3.2 0.00 0.00 0.00 76 1030.2
20260830235130 16 359 0.0 3.2 0.00 0.00 0.00 78 1030.2
20260830234129 16 359 0.0 4.8 0.00 0.00 0.00 80 1030.3
20260830233629 16 359 1.6 8.0 0.00 0.00 0.00 81 1030.3
20260830233130 16 359 0.0 8.0 0.00 0.00 0.00 82 1030.3
20260830232629 16 359 0.0 8.0 0.00 0.00 0.00 83 1030.2
20260830231629 15 359 1.6 4.8 0.00 0.00 0.00 86 1030.3
20260830231129 15 359 1.6 4.8 0.00 0.00 0.00 87 1030.4
20260830230629 15 359 1.6 4.8 0.00 0.00 0.00 88 1030.4
20260830230129 15 359 3.2 9.7 0.00 0.00 0.00 90 1030.4
20260830225629 15 359 1.6 8.0 0.00 0.00 0.00 91 1030.4
20260830224629 14 359 0.0 4.8 0.00 0.00 0.00 93 1030.2
20260830224129 14 359 1.6 3.2 0.00 0.00 0.00 94 1030.2
20260830223629 13 359 0.0 4.8 0.00 0.00 0.00 94 1030.2
20260830223129 13 359 0.0 1.6 0.00 0.00 0.00 95 1030.2
20260830221130 11 2 0.0 0.0 0.00 0.00 0.00 95 1030.3
20260830220129 11 9 0.0 0.0 0.00 0.00 0.00 95 1030.2
20260830215129 11 0 0.0 0.0 0.00 0.00 0.00 95 1030.1
20260830214629 11 7 0.0 0.0 0.00 0.00 0.00 95 1030.0
20260830214130 11 0 0.0 1.6 0.00 0.00 0.00 95 1030.0
20260830213629 10 359 0.0 0.0 0.00 0.00 0.00 95 1029.9
20260830213129 10 8 0.0 0.0 0.00 0.00 0.00 95 1029.9
20260830212629 10 5 1.6 4.8 0.00 0.00 0.00 95 1029.8
20260830211629 10 93 0.0 0.0 0.00 0.00 0.00 95 1029.8
20260830210629 10 89 0.0 0.0 0.00 0.00 0.00 94 1029.8
20260830205629 9 88 0.0 0.0 0.00 0.00 0.00 94 1029.6
20260830204629 9 88 0.0 0.0 0.00 0.00 0.00 94 1029.5
20260830204129 9 88 0.0 0.0 0.00 0.00 0.00 94 1029.4
20260830203629 9 88 0.0 0.0 0.00 0.00 0.00 93 1029.4
20260830203129 9 88 0.0 0.0 0.00 0.00 0.00 93 1029.4
20260830202629 9 89 0.0 0.0 0.00 0.00 0.00 93 1029.3
20260830202129 9 89 0.0 0.0 0.00 0.00 0.00 94 1029.3
20260830201628 9 88 0.0 0.0 0.00 0.00 0.00 94 1029.3
20260830201129 9 88 0.0 0.0 0.00 0.00 0.00 94 1029.2
20260830200628 9 88 0.0 0.0 0.00 0.00 0.00 93 1029.2
20260830200129 9 88 0.0 0.0 0.00 0.00 0.00 93 1029.2
20260830195628 9 88 0.0 0.0 0.00 0.00 0.00 93 1029.1
20260830194629 9 88 0.0 0.0 0.00 0.00 0.00 93 1029.0
20260830193629 9 88 0.0 0.0 0.00 0.00 0.00 93 1029.0
20260830193129 9 88 0.0 0.0 0.00 0.00 0.00 93 1028.9
20260830192629 9 88 0.0 0.0 0.00 0.00 0.00 93 1029.0
20260830192129 9 88 0.0 0.0 0.00 0.00 0.00 93 1028.9
20260830191629 9 88 0.0 0.0 0.00 0.00 0.00 93 1028.9
20260830191129 9 88 0.0 0.0 0.00 0.00 0.00 93 1028.8
20260830190629 9 84 0.0 0.0 0.00 0.00 0.00 93 1028.8
20260830190129 9 84 0.0 0.0 0.00 0.00 0.00 93 1028.9
20260830185629 9 84 0.0 0.0 0.00 0.00 0.00 93 1028.9
20260830185129 9 84 0.0 0.0 0.00 0.00 0.00 93 1028.8
20260830184629 9 84 0.0 0.0 0.00 0.00 0.00 93 1028.7
20260830184129 9 84 0.0 0.0 0.00 0.00 0.00 93 1028.7
20260830183629 9 84 0.0 0.0 0.00 0.00 0.00 93 1028.7
20260830183129 9 84 0.0 0.0 0.00 0.00 0.00 93 1028.7
20260830182129 10 75 0.0 0.0 0.00 0.00 0.00 92 1028.8
20260830181629 10 75 0.0 0.0 0.00 0.00 0.00 92 1028.8
20260830180629 10 74 0.0 0.0 0.00 0.00 0.00 92 1028.8
20260830180129 10 73 0.0 0.0 0.00 0.00 0.00 92 1028.7
20260830175629 10 73 0.0 0.0 0.00 0.00 0.00 92 1028.7
20260830175128 10 73 0.0 0.0 0.00 0.00 0.00 92 1028.8
20260830174629 10 73 0.0 0.0 0.00 0.00 0.00 92 1028.8
20260830174131 10 73 0.0 0.0 0.00 0.00 0.00 93 1029.0
20260830172131 10 73 0.0 0.0 0.00 0.00 0.00 92 1029.0
20260830171131 10 73 0.0 0.0 0.00 0.00 0.00 92 1029.1
20260830170631 10 74 0.0 0.0 0.00 0.00 0.00 92 1029.1
20260830170131 10 73 0.0 0.0 0.00 0.00 0.00 92 1029.1
20260830165632 10 73 0.0 0.0 0.00 0.00 0.00 92 1029.2
20260830165131 10 73 0.0 0.0 0.00 0.00 0.00 92 1029.2
20260830164631 10 73 0.0 0.0 0.00 0.00 0.00 92 1029.2
20260830164131 10 73 0.0 0.0 0.00 0.00 0.00 92 1029.2
20260830163632 10 73 0.0 0.0 0.00 0.00 0.00 92 1029.2
20260830162132 10 73 0.0 0.0 0.00 0.00 0.00 92 1029.4
20260830161631 10 73 0.0 0.0 0.00 0.00 0.00 92 1029.5
20260830161131 10 73 0.0 0.0 0.00 0.00 0.00 92 1029.6
20260830160131 10 73 0.0 0.0 0.00 0.00 0.00 92 1029.5
20260830155631 10 74 0.0 0.0 0.00 0.00 0.00 92 1029.6
20260830155131 10 73 0.0 0.0 0.00 0.00 0.00 92 1029.6
20260830154131 10 73 0.0 0.0 0.00 0.00 0.00 92 1029.6
20260830153631 10 73 0.0 0.0 0.00 0.00 0.00 91 1029.6
20260830153131 10 74 0.0 0.0 0.00 0.00 0.00 91 1029.8
20260830152631 10 73 0.0 0.0 0.00 0.00 0.00 91 1029.8
20260830152131 10 73 0.0 0.0 0.00 0.00 0.00 91 1029.8
20260830151631 10 73 0.0 0.0 0.00 0.00 0.00 92 1029.8
20260830151131 10 73 0.0 0.0 0.00 0.00 0.00 91 1029.8
20260830150632 10 73 0.0 0.0 0.00 0.00 0.00 91 1029.8
20260830150131 10 74 0.0 0.0 0.00 0.00 0.00 91 1029.7
20260830145631 10 73 0.0 0.0 0.00 0.00 0.00 91 1029.7
20260830145131 10 73 0.0 0.0 0.00 0.00 0.00 91 1029.8
20260830144631 10 74 0.0 0.0 0.00 0.00 0.00 91 1029.9
20260830144131 10 73 0.0 0.0 0.00 0.00 0.00 91 1029.9
20260830143631 10 74 0.0 0.0 0.00 0.00 0.00 91 1029.9
20260830143131 10 73 0.0 0.0 0.00 0.00 0.00 91 1029.8
20260830142631 11 73 0.0 0.0 0.00 0.00 0.00 91 1029.9
20260830141631 11 73 0.0 0.0 0.00 0.00 0.00 91 1029.8
20260830140631 11 74 0.0 0.0 0.00 0.00 0.00 91 1029.8
20260830135631 11 74 0.0 0.0 0.00 0.00 0.00 91 1029.8
20260830135131 11 73 0.0 0.0 0.00 0.00 0.00 91 1029.8
20260830134631 11 73 0.0 0.0 0.00 0.00 0.00 90 1029.8
20260830134131 11 73 0.0 0.0 0.00 0.00 0.00 90 1029.8
20260830133631 11 73 0.0 0.0 0.00 0.00 0.00 90 1029.9
20260830132631 11 74 0.0 0.0 0.00 0.00 0.00 90 1029.9
20260830132130 11 74 0.0 0.0 0.00 0.00 0.00 90 1029.9
20260830131631 11 74 0.0 0.0 0.00 0.00 0.00 90 1030.0
20260830131131 11 73 0.0 0.0 0.00 0.00 0.00 90 1029.9
20260830130631 11 73 0.0 0.0 0.00 0.00 0.00 90 1029.9
20260830130131 11 73 0.0 0.0 0.00 0.00 0.00 90 1030.0
20260830125631 11 73 0.0 0.0 0.00 0.00 0.00 90 1030.0
20260830125131 11 73 0.0 0.0 0.00 0.00 0.00 90 1030.1
20260830124130 11 73 0.0 0.0 0.00 0.00 0.00 89 1030.1
20260830123631 11 73 0.0 0.0 0.00 0.00 0.00 89 1030.1
20260830123131 11 73 0.0 0.0 0.00 0.00 0.00 89 1030.1
20260830122131 11 73 0.0 0.0 0.00 0.00 0.00 88 1030.0
20260830121631 11 73 0.0 0.0 0.00 0.00 0.00 88 1030.1
20260830121131 11 74 0.0 0.0 0.00 0.00 0.00 88 1030.1
20260830120631 11 74 0.0 0.0 0.00 0.00 0.00 88 1030.0
20260830120131 11 74 0.0 0.0 0.00 0.00 0.00 88 1030.0
20260830115630 11 66 0.0 0.0 0.00 0.00 0.00 88 1030.0
20260830115131 11 66 0.0 0.0 0.00 0.00 0.00 87 1029.8
20260830114631 11 66 0.0 0.0 0.00 0.00 0.00 87 1029.7
20260830114131 12 65 0.0 0.0 0.00 0.00 0.00 87 1029.5
20260830113130 12 66 0.0 0.0 0.00 0.00 0.00 87 1029.5
20260830112631 12 66 0.0 0.0 0.00 0.00 0.00 86 1029.4
20260830111631 12 65 0.0 0.0 0.00 0.00 0.00 85 1029.4
20260830110632 12 66 0.0 0.0 0.00 0.00 0.00 85 1029.4
20260830110131 12 65 0.0 0.0 0.00 0.00 0.00 84 1029.4
20260830105631 12 66 0.0 0.0 0.00 0.00 0.00 84 1029.5
20260830105131 12 66 0.0 0.0 0.00 0.00 0.00 84 1029.4
20260830104130 12 66 0.0 0.0 0.00 0.00 0.00 83 1029.4
20260830103631 13 66 0.0 0.0 0.00 0.00 0.00 83 1029.4
20260830103130 13 66 0.0 0.0 0.00 0.00 0.00 83 1029.3
20260830102631 13 66 0.0 0.0 0.00 0.00 0.00 83 1029.2
20260830102130 13 66 0.0 0.0 0.00 0.00 0.00 82 1029.2
20260830101631 13 66 0.0 0.0 0.00 0.00 0.00 83 1029.2
20260830101130 13 66 0.0 0.0 0.00 0.00 0.00 82 1029.2
20260830100631 13 65 0.0 0.0 0.00 0.00 0.00 82 1029.1
20260830100130 13 66 0.0 0.0 0.00 0.00 0.00 82 1029.0
20260830095631 13 66 0.0 0.0 0.00 0.00 0.00 81 1029.0
20260830095131 13 65 0.0 0.0 0.00 0.00 0.00 81 1029.0
20260830094631 14 65 0.0 0.0 0.00 0.00 0.00 81 1029.0
20260830094131 14 66 0.0 0.0 0.00 0.00 0.00 81 1029.0
20260830093630 14 66 0.0 0.0 0.00 0.00 0.00 81 1029.0
20260830092631 15 66 0.0 0.0 0.00 0.00 0.00 80 1028.9
20260830092131 15 65 0.0 0.0 0.00 0.00 0.00 79 1028.8
20260830091631 15 65 0.0 0.0 0.00 0.00 0.00 79 1028.8
20260830091130 15 65 0.0 0.0 0.00 0.00 0.00 78 1028.9
20260830090630 15 65 0.0 0.0 0.00 0.00 0.00 77 1028.7
20260830090130 15 65 0.0 0.0 0.00 0.00 0.00 77 1028.7
20260830085631 16 65 0.0 0.0 0.00 0.00 0.00 76 1028.7
20260830085131 16 65 0.0 0.0 0.00 0.00 0.00 76 1028.6
20260830084631 16 66 0.0 0.0 0.00 0.00 0.00 75 1028.7
20260830084131 16 65 0.0 0.0 0.00 0.00 0.00 75 1028.6
20260830083130 17 65 0.0 0.0 0.00 0.00 0.00 74 1028.3
20260830082130 17 65 0.0 0.0 0.00 0.00 0.00 72 1028.1
20260830081630 17 66 0.0 0.0 0.00 0.00 0.00 72 1028.0
20260830081131 17 65 0.0 0.0 0.00 0.00 0.00 71 1028.0
20260830080630 17 66 0.0 0.0 0.00 0.00 0.00 71 1027.9
20260830080131 18 65 0.0 0.0 0.00 0.00 0.00 70 1027.9
20260830075631 18 65 0.0 0.0 0.00 0.00 0.00 70 1028.0
20260830075131 18 65 0.0 0.0 0.00 0.00 0.00 70 1028.0
20260830074630 18 66 0.0 0.0 0.00 0.00 0.00 69 1028.0
20260830074131 18 65 0.0 0.0 0.00 0.00 0.00 68 1027.9
20260830073630 18 65 0.0 0.0 0.00 0.00 0.00 67 1027.9
20260830073130 19 65 0.0 0.0 0.00 0.00 0.00 66 1027.9
20260830072630 19 65 0.0 0.0 0.00 0.00 0.00 65 1027.9
20260830072130 20 66 0.0 0.0 0.00 0.00 0.00 63 1027.9
20260830071631 20 65 0.0 0.0 0.00 0.00 0.00 62 1027.9
20260830071131 20 65 0.0 0.0 0.00 0.00 0.00 61 1027.8
20260830070631 20 65 0.0 0.0 0.00 0.00 0.00 61 1027.7
20260830070131 20 65 0.0 1.6 0.00 0.00 0.00 60 1027.7
20260830065631 20 65 0.0 0.0 0.00 0.00 0.00 58 1027.6
20260830065131 21 65 0.0 0.0 0.00 0.00 0.00 57 1027.6
20260830064630 21 65 0.0 0.0 0.00 0.00 0.00 55 1027.6
20260830064131 21 64 0.0 0.0 0.00 0.00 0.00 54 1027.6
20260830063631 21 65 0.0 0.0 0.00 0.00 0.00 52 1027.6
20260830063130 21 64 0.0 0.0 0.00 0.00 0.00 51 1027.6
20260830062630 22 64 0.0 4.8 0.00 0.00 0.00 49 1027.6
20260830062131 22 65 0.0 1.6 0.00 0.00 0.00 50 1027.6
20260830061630 22 66 0.0 1.6 0.00 0.00 0.00 51 1027.6
20260830061130 22 64 0.0 1.6 0.00 0.00 0.00 50 1027.6
20260830060630 22 63 0.0 1.6 0.00 0.00 0.00 50 1027.6
20260830060130 22 63 0.0 3.2 0.00 0.00 0.00 51 1027.6
20260830055631 22 66 0.0 1.6 0.00 0.00 0.00 51 1027.7
20260830054631 22 63 0.0 0.0 0.00 0.00 0.00 51 1027.7